Time,TemperatureF,DewpointF,PressureIn,WindDirection,WindDirectionDegrees,WindSpeedMPH,WindSpeedGustMPH,Humidity,HourlyPrecipIn,Conditions,Clouds,dailyrainin,SoftwareType,DateUTC
2013-01-03 00:02:00,14.9,-1.7,23.56,SSW,202,0.0,0.0,47,0.00,,---,0.00,VWS V14.01,2013-01-03 08:02:00,
2013-01-03 00:07:00,14.5,-1.6,23.56,WSW,248,0.0,0.0,48,0.00,,---,0.00,VWS V14.01,2013-01-03 08:07:00,
2013-01-03 00:12:00,14.0,-2.1,23.56,ENE,68,0.0,0.0,48,0.00,,---,0.00,VWS V14.01,2013-01-03 08:12:00,
2013-01-03 00:17:00,13.8,-2.2,23.56,East,90,0.0,0.0,48,0.00,,---,0.00,VWS V14.01,2013-01-03 08:17:00,
2013-01-03 00:23:00,14.0,-2.1,23.56,North,0,0.0,0.0,48,0.00,,---,0.00,VWS V14.01,2013-01-03 08:23:00,
2013-01-03 00:28:00,14.4,-1.3,23.56,West,270,0.0,0.0,49,0.00,,---,0.00,VWS V14.01,2013-01-03 08:28:00,
2013-01-03 00:33:00,14.4,-1.3,23.56,East,90,0.0,0.0,49,0.00,,---,0.00,VWS V14.01,2013-01-03 08:33:00,
2013-01-03 00:38:00,14.7,-1.0,23.56,East,90,0.0,0.0,49,0.00,,---,0.00,VWS V14.01,2013-01-03 08:38:00,
2013-01-03 00:43:00,14.7,-1.0,23.56,SSE,158,0.0,0.0,49,0.00,,---,0.00,VWS V14.01,2013-01-03 08:43:00,
2013-01-03 00:48:00,14.5,-1.6,23.56,NNE,22,0.0,0.0,48,0.00,,---,0.00,VWS V14.01,2013-01-03 08:48:00,
2013-01-03 00:53:00,14.2,-1.9,23.56,WSW,248,2.0,2.0,48,0.00,,---,0.00,VWS V14.01,2013-01-03 08:53:00,
2013-01-03 00:58:00,13.5,-2.1,23.56,North,0,0.0,0.0,49,0.00,,---,0.00,VWS V14.01,2013-01-03 08:58:00,
2013-01-03 01:03:00,13.1,-2.5,23.56,ENE,68,0.0,0.0,49,0.00,,---,0.00,VWS V14.01,2013-01-03 09:03:00,
2013-01-03 01:09:00,12.7,-2.8,23.56,SSW,202,0.0,0.0,49,0.00,,---,0.00,VWS V14.01,2013-01-03 09:09:00,
2013-01-03 01:14:00,12.7,-2.8,23.56,WSW,248,0.0,0.0,49,0.00,,---,0.00,VWS V14.01,2013-01-03 09:14:00,
2013-01-03 01:19:00,12.6,-3.0,23.56,ENE,68,0.0,0.0,49,0.00,,---,0.00,VWS V14.01,2013-01-03 09:19:00,
2013-01-03 01:24:00,13.1,-2.5,23.56,NNE,22,0.0,0.0,49,0.00,,---,0.00,VWS V14.01,2013-01-03 09:24:00,
2013-01-03 01:29:00,13.3,-2.3,23.56,NE,45,0.0,0.0,49,0.00,,---,0.00,VWS V14.01,2013-01-03 09:29:00,
2013-01-03 01:34:00,13.3,-2.3,23.56,SW,225,0.0,0.0,49,0.00,,---,0.00,VWS V14.01,2013-01-03 09:34:00,
2013-01-03 01:40:00,12.7,-2.8,23.56,WSW,248,0.0,0.0,49,0.00,,---,0.00,VWS V14.01,2013-01-03 09:40:00,
2013-01-03 01:46:00,12.2,-3.3,23.56,SSW,202,0.0,0.0,49,0.00,,---,0.00,VWS V14.01,2013-01-03 09:46:00,
2013-01-03 01:51:00,11.7,-3.8,23.56,ENE,68,0.0,0.0,49,0.00,,---,0.00,VWS V14.01,2013-01-03 09:51:00,
2013-01-03 01:56:00,12.0,-3.5,23.56,East,90,0.0,0.0,49,0.00,,---,0.00,VWS V14.01,2013-01-03 09:56:00,
2013-01-03 02:01:00,12.0,-3.5,23.56,NNE,22,0.0,0.0,49,0.00,,---,0.00,VWS V14.01,2013-01-03 10:01:00,
2013-01-03 02:06:00,11.8,-3.6,23.56,NNE,22,0.0,0.0,49,0.00,,---,0.00,VWS V14.01,2013-01-03 10:06:00,
2013-01-03 02:11:00,11.8,-3.6,23.56,ESE,112,0.0,0.0,49,0.00,,---,0.00,VWS V14.01,2013-01-03 10:11:00,
2013-01-03 02:16:00,11.8,-3.6,23.56,ESE,112,0.0,0.0,49,0.00,,---,0.00,VWS V14.01,2013-01-03 10:16:00,
2013-01-03 02:22:00,12.0,-3.5,23.56,SSW,202,0.0,0.0,49,0.00,,---,0.00,VWS V14.01,2013-01-03 10:22:00,
2013-01-03 02:27:00,11.8,-3.6,23.56,SSW,202,0.0,0.0,49,0.00,,---,0.00,VWS V14.01,2013-01-03 10:27:00,
2013-01-03 02:32:00,11.7,-3.8,23.56,SSW,202,0.0,0.0,49,0.00,,---,0.00,VWS V14.01,2013-01-03 10:32:00,
2013-01-03 02:37:00,11.5,-4.0,23.56,SSW,202,0.0,0.0,49,0.00,,---,0.00,VWS V14.01,2013-01-03 10:37:00,
2013-01-03 02:43:00,11.3,-4.1,23.56,NNE,22,0.0,0.0,49,0.00,,---,0.00,VWS V14.01,2013-01-03 10:43:00,
2013-01-03 02:48:00,11.1,-4.3,23.56,NNE,22,0.0,0.0,49,0.00,,---,0.00,VWS V14.01,2013-01-03 10:48:00,
2013-01-03 02:53:00,10.9,-4.5,23.53,NNE,22,0.0,0.0,49,0.00,,---,0.00,VWS V14.01,2013-01-03 10:53:00,
2013-01-03 02:58:00,10.9,-4.5,23.53,North,0,0.0,0.0,49,0.00,,---,0.00,VWS V14.01,2013-01-03 10:58:00,
2013-01-03 03:04:00,10.9,-4.5,23.53,NE,45,0.0,0.0,49,0.00,,---,0.00,VWS V14.01,2013-01-03 11:04:00,
2013-01-03 03:09:00,10.8,-4.6,23.53,SW,225,0.0,0.0,49,0.00,,---,0.00,VWS V14.01,2013-01-03 11:09:00,
2013-01-03 03:15:00,11.1,-4.3,23.53,NNE,22,0.0,0.0,49,0.00,,---,0.00,VWS V14.01,2013-01-03 11:15:00,
2013-01-03 03:20:00,11.1,-4.3,23.53,SSE,158,0.0,0.0,49,0.00,,---,0.00,VWS V14.01,2013-01-03 11:20:00,
2013-01-03 03:26:00,10.8,-4.6,23.53,ENE,68,0.0,0.0,49,0.00,,---,0.00,VWS V14.01,2013-01-03 11:26:00,
2013-01-03 03:31:00,10.9,-4.5,23.53,NE,45,0.0,0.0,49,0.00,,---,0.00,VWS V14.01,2013-01-03 11:31:00,
2013-01-03 03:36:00,10.9,-4.5,23.53,NNE,22,0.0,0.0,49,0.00,,---,0.00,VWS V14.01,2013-01-03 11:36:00,
2013-01-03 03:41:00,16.0,2.3,23.53,NNE,22,4.5,6.0,54,0.00,,---,0.00,VWS V14.01,2013-01-03 11:41:00,
2013-01-03 03:47:00,20.3,4.2,23.53,NNE,22,4.5,4.5,49,0.00,,---,0.00,VWS V14.01,2013-01-03 11:47:00,
2013-01-03 03:52:00,21.2,4.6,23.53,North,0,1.1,5.4,48,0.00,,---,0.00,VWS V14.01,2013-01-03 11:52:00,
2013-01-03 03:57:00,21.6,4.0,23.53,NNE,22,3.8,3.8,46,0.00,,---,0.00,VWS V14.01,2013-01-03 11:57:00,
2013-01-03 04:02:00,22.3,4.2,23.53,NNE,22,1.6,3.1,45,0.00,,---,0.00,VWS V14.01,2013-01-03 12:02:00,
2013-01-03 04:08:00,22.6,4.5,23.53,NNE,22,1.6,1.6,45,0.00,,---,0.00,VWS V14.01,2013-01-03 12:08:00,
2013-01-03 04:13:00,22.5,3.9,23.53,NNE,22,2.7,3.1,44,0.00,,---,0.00,VWS V14.01,2013-01-03 12:13:00,
2013-01-03 04:18:00,22.5,3.9,23.53,NNE,22,0.0,0.0,44,0.00,,---,0.00,VWS V14.01,2013-01-03 12:18:00,
2013-01-03 04:23:00,21.7,3.2,23.53,NE,45,0.0,0.0,44,0.00,,---,0.00,VWS V14.01,2013-01-03 12:23:00,
2013-01-03 04:29:00,19.9,1.5,23.53,SSW,202,0.0,1.1,44,0.00,,---,0.00,VWS V14.01,2013-01-03 12:29:00,
2013-01-03 04:34:00,18.7,0.9,23.53,West,270,0.0,0.0,45,0.00,,---,0.00,VWS V14.01,2013-01-03 12:34:00,
2013-01-03 04:39:00,17.4,-0.3,23.53,NNE,22,0.0,0.0,45,0.00,,---,0.00,VWS V14.01,2013-01-03 12:39:00,
2013-01-03 04:44:00,16.7,-0.9,23.53,ENE,68,0.0,0.0,45,0.00,,---,0.00,VWS V14.01,2013-01-03 12:44:00,
2013-01-03 04:50:00,15.6,-1.5,23.53,NE,45,0.0,0.0,46,0.00,,---,0.00,VWS V14.01,2013-01-03 12:50:00,
2013-01-03 04:55:00,15.3,-1.8,23.53,NNE,22,0.0,0.0,46,0.00,,---,0.00,VWS V14.01,2013-01-03 12:55:00,
2013-01-03 05:00:00,15.3,-1.8,23.53,NW,315,0.0,0.0,46,0.00,,---,0.00,VWS V14.01,2013-01-03 13:00:00,
2013-01-03 05:05:00,14.9,-2.1,23.53,North,0,0.0,0.0,46,0.00,,---,0.00,VWS V14.01,2013-01-03 13:05:00,
2013-01-03 05:11:00,14.4,-2.2,23.56,NE,45,0.0,0.0,47,0.00,,---,0.00,VWS V14.01,2013-01-03 13:11:00,
2013-01-03 05:17:00,14.5,-2.0,23.56,NNE,22,0.0,0.0,47,0.00,,---,0.00,VWS V14.01,2013-01-03 13:17:00,
2013-01-03 05:22:00,15.1,-1.1,23.56,NNE,22,0.0,0.0,48,0.00,,---,0.00,VWS V14.01,2013-01-03 13:22:00,
2013-01-03 05:27:00,14.9,-1.2,23.56,NNE,22,0.0,0.0,48,0.00,,---,0.00,VWS V14.01,2013-01-03 13:27:00,
2013-01-03 05:32:00,15.1,-1.1,23.56,NE,45,0.0,0.0,48,0.00,,---,0.00,VWS V14.01,2013-01-03 13:32:00,
2013-01-03 05:38:00,16.2,-0.1,23.56,WNW,292,0.0,0.0,48,0.00,,---,0.00,VWS V14.01,2013-01-03 13:38:00,
2013-01-03 05:43:00,15.3,-0.9,23.56,WSW,248,0.0,0.0,48,0.00,,---,0.00,VWS V14.01,2013-01-03 13:43:00,
2013-01-03 05:48:00,14.7,-1.4,23.56,NNW,338,0.0,0.0,48,0.00,,---,0.00,VWS V14.01,2013-01-03 13:48:00,
2013-01-03 05:53:00,14.0,-2.1,23.53,NE,45,0.0,0.0,48,0.00,,---,0.00,VWS V14.01,2013-01-03 13:53:00,
2013-01-03 05:58:00,14.0,-2.1,23.53,ENE,68,0.0,0.0,48,0.00,,---,0.00,VWS V14.01,2013-01-03 13:58:00,
2013-01-03 06:03:00,14.7,-1.4,23.53,ENE,68,0.0,0.0,48,0.00,,---,0.00,VWS V14.01,2013-01-03 14:03:00,
2013-01-03 06:08:00,16.0,-0.2,23.56,ENE,68,0.0,0.0,48,0.00,,---,0.00,VWS V14.01,2013-01-03 14:08:00,
2013-01-03 06:14:00,16.0,-0.2,23.56,North,0,0.0,0.0,48,0.00,,---,0.00,VWS V14.01,2013-01-03 14:14:00,
2013-01-03 06:19:00,15.4,-0.7,23.56,NW,315,0.0,0.0,48,0.00,,---,0.00,VWS V14.01,2013-01-03 14:19:00,
2013-01-03 06:24:00,15.4,-1.2,23.56,NW,315,0.0,0.0,47,0.00,,---,0.00,VWS V14.01,2013-01-03 14:24:00,
2013-01-03 06:29:00,14.9,-1.7,23.56,NNE,22,0.0,0.0,47,0.00,,---,0.00,VWS V14.01,2013-01-03 14:29:00,
2013-01-03 06:35:00,14.9,-1.7,23.56,NNE,22,0.0,0.0,47,0.00,,---,0.00,VWS V14.01,2013-01-03 14:35:00,
2013-01-03 06:40:00,14.5,-2.0,23.56,NNE,22,0.0,0.0,47,0.00,,---,0.00,VWS V14.01,2013-01-03 14:40:00,
2013-01-03 06:45:00,14.5,-2.0,23.56,NE,45,0.0,0.0,47,0.00,,---,0.00,VWS V14.01,2013-01-03 14:45:00,
2013-01-03 06:50:00,15.1,-1.5,23.56,ENE,68,0.0,0.0,47,0.00,,---,0.00,VWS V14.01,2013-01-03 14:50:00,
2013-01-03 06:56:00,16.2,-0.5,23.56,NE,45,0.0,0.0,47,0.00,,---,0.00,VWS V14.01,2013-01-03 14:56:00,
2013-01-03 07:01:00,16.5,-0.2,23.56,North,0,0.0,0.0,47,0.00,,---,0.00,VWS V14.01,2013-01-03 15:01:00,
2013-01-03 07:06:00,17.6,0.8,23.56,NNE,22,0.0,0.0,47,0.00,,---,0.00,VWS V14.01,2013-01-03 15:06:00,
2013-01-03 07:11:00,19.0,1.7,23.56,North,0,0.0,0.0,46,0.00,,---,0.00,VWS V14.01,2013-01-03 15:11:00,
2013-01-03 07:17:00,18.7,0.9,23.56,ENE,68,0.0,0.0,45,0.00,,---,0.00,VWS V14.01,2013-01-03 15:17:00,
2013-01-03 07:22:00,19.0,1.7,23.56,WSW,248,0.0,0.0,46,0.00,,---,0.00,VWS V14.01,2013-01-03 15:22:00,
2013-01-03 07:27:00,18.1,0.4,23.56,SSE,158,0.0,0.0,45,0.00,,---,0.00,VWS V14.01,2013-01-03 15:27:00,
2013-01-03 07:32:00,17.4,-0.3,23.56,NNE,22,0.0,0.0,45,0.00,,---,0.00,VWS V14.01,2013-01-03 15:32:00,
2013-01-03 07:38:00,16.7,-0.9,23.59,NNE,22,0.0,0.0,45,0.00,,---,0.00,VWS V14.01,2013-01-03 15:38:00,
2013-01-03 07:43:00,18.1,0.4,23.59,NNE,22,3.4,3.4,45,0.00,,---,0.00,VWS V14.01,2013-01-03 15:43:00,
2013-01-03 07:48:00,19.6,1.7,23.59,NE,45,0.0,0.0,45,0.00,,---,0.00,VWS V14.01,2013-01-03 15:48:00,
2013-01-03 07:53:00,19.6,1.7,23.59,East,90,0.0,0.0,45,0.00,,---,0.00,VWS V14.01,2013-01-03 15:53:00,
2013-01-03 07:59:00,19.4,1.5,23.59,WSW,248,0.0,0.0,45,0.00,,---,0.00,VWS V14.01,2013-01-03 15:59:00,
2013-01-03 08:04:00,19.2,1.4,23.59,ENE,68,0.0,0.0,45,0.00,,---,0.00,VWS V14.01,2013-01-03 16:04:00,
2013-01-03 08:09:00,19.9,2.0,23.59,ENE,68,0.0,0.9,45,0.00,,---,0.00,VWS V14.01,2013-01-03 16:09:00,
2013-01-03 08:14:00,21.0,2.5,23.59,NNE,22,0.0,0.0,44,0.00,,---,0.00,VWS V14.01,2013-01-03 16:14:00,
2013-01-03 08:20:00,22.5,3.4,23.59,ENE,68,0.0,0.0,43,0.00,,---,0.00,VWS V14.01,2013-01-03 16:20:00,
2013-01-03 08:25:00,23.9,4.7,23.59,ENE,68,0.0,0.0,43,0.00,,---,0.00,VWS V14.01,2013-01-03 16:25:00,
2013-01-03 08:30:00,25.3,5.5,23.59,NE,45,0.0,0.0,42,0.00,,---,0.00,VWS V14.01,2013-01-03 16:30:00,
2013-01-03 08:35:00,26.2,6.3,23.59,ENE,68,0.0,0.0,42,0.00,,---,0.00,VWS V14.01,2013-01-03 16:35:00,
2013-01-03 08:41:00,27.3,6.7,23.59,ENE,68,0.0,0.9,41,0.00,,---,0.00,VWS V14.01,2013-01-03 16:41:00,
2013-01-03 08:46:00,28.6,6.2,23.59,NE,45,0.0,1.3,38,0.00,,---,0.00,VWS V14.01,2013-01-03 16:46:00,
2013-01-03 08:51:00,30.0,6.9,23.59,ENE,68,0.0,0.0,37,0.00,,---,0.00,VWS V14.01,2013-01-03 16:51:00,
2013-01-03 08:56:00,31.3,7.4,23.59,East,90,0.0,0.0,36,0.00,,---,0.00,VWS V14.01,2013-01-03 16:56:00,
2013-01-03 09:02:00,32.7,8.7,23.59,NNE,22,0.0,0.0,36,0.00,,---,0.00,VWS V14.01,2013-01-03 17:02:00,
2013-01-03 09:07:00,33.4,7.4,23.59,NNE,22,0.0,3.6,33,0.00,,---,0.00,VWS V14.01,2013-01-03 17:07:00,
2013-01-03 09:12:00,34.0,7.2,23.59,NNE,22,0.0,3.1,32,0.00,,---,0.00,VWS V14.01,2013-01-03 17:12:00,
2013-01-03 09:17:00,34.2,6.7,23.59,North,0,1.3,4.3,31,0.00,,---,0.00,VWS V14.01,2013-01-03 17:17:00,
2013-01-03 09:23:00,34.3,6.1,23.62,NNW,338,4.9,4.9,30,0.00,,---,0.00,VWS V14.01,2013-01-03 17:23:00,
2013-01-03 09:28:00,34.3,6.9,23.62,NNE,22,1.3,6.5,31,0.00,,---,0.00,VWS V14.01,2013-01-03 17:28:00,
2013-01-03 09:33:00,34.7,7.2,23.62,NNW,338,2.5,3.6,31,0.00,,---,0.00,VWS V14.01,2013-01-03 17:33:00,
2013-01-03 09:38:00,35.1,7.5,23.62,NNE,22,1.1,1.1,31,0.00,,---,0.00,VWS V14.01,2013-01-03 17:38:00,
2013-01-03 09:44:00,36.0,8.3,23.62,NNE,22,2.9,2.9,31,0.00,,---,0.00,VWS V14.01,2013-01-03 17:44:00,
2013-01-03 09:49:00,36.1,7.7,23.62,NW,315,0.0,0.0,30,0.00,,---,0.00,VWS V14.01,2013-01-03 17:49:00,
2013-01-03 09:54:00,36.9,8.3,23.62,ENE,68,0.0,0.0,30,0.00,,---,0.00,VWS V14.01,2013-01-03 17:54:00,
2013-01-03 09:59:00,37.4,8.1,23.62,NE,45,0.0,2.9,29,0.00,,---,0.00,VWS V14.01,2013-01-03 17:59:00,
2013-01-03 10:05:00,37.4,8.1,23.62,ENE,68,0.0,0.0,29,0.00,,---,0.00,VWS V14.01,2013-01-03 18:05:00,
2013-01-03 10:10:00,37.8,8.4,23.62,NW,315,0.0,0.0,29,0.00,,---,0.00,VWS V14.01,2013-01-03 18:10:00,
2013-01-03 10:15:00,38.3,8.8,23.62,North,0,0.0,0.0,29,0.00,,---,0.00,VWS V14.01,2013-01-03 18:15:00,
2013-01-03 10:20:00,38.7,9.2,23.62,North,0,0.0,1.3,29,0.00,,---,0.00,VWS V14.01,2013-01-03 18:20:00,
2013-01-03 10:25:00,39.2,9.6,23.62,North,0,0.0,0.0,29,0.00,,---,0.00,VWS V14.01,2013-01-03 18:25:00,
2013-01-03 10:30:00,39.7,10.1,23.62,NNW,338,0.0,0.0,29,0.00,,---,0.00,VWS V14.01,2013-01-03 18:30:00,
2013-01-03 10:35:00,40.1,10.4,23.62,NE,45,0.0,0.0,29,0.00,,---,0.00,VWS V14.01,2013-01-03 18:35:00,
2013-01-03 10:40:00,39.9,9.5,23.62,NNW,338,2.9,2.9,28,0.00,,---,0.00,VWS V14.01,2013-01-03 18:40:00,
2013-01-03 10:46:00,39.6,9.9,23.62,NNE,22,0.0,3.8,29,0.00,,---,0.00,VWS V14.01,2013-01-03 18:46:00,
2013-01-03 10:51:00,38.7,9.2,23.62,NNE,22,2.2,2.2,29,0.00,,---,0.00,VWS V14.01,2013-01-03 18:51:00,
2013-01-03 10:56:00,38.7,9.2,23.62,North,0,1.3,1.3,29,0.00,,---,0.00,VWS V14.01,2013-01-03 18:56:00,
2013-01-03 11:01:00,39.7,9.3,23.62,SE,135,0.0,0.0,28,0.00,,---,0.00,VWS V14.01,2013-01-03 19:01:00,
2013-01-03 11:06:00,41.0,10.4,23.62,SSE,158,1.6,1.6,28,0.00,,---,0.00,VWS V14.01,2013-01-03 19:06:00,
2013-01-03 11:11:00,41.7,11.0,23.59,NNW,338,0.0,0.0,28,0.00,,---,0.00,VWS V14.01,2013-01-03 19:11:00,
2013-01-03 11:16:00,42.3,11.5,23.59,NE,45,2.9,4.0,28,0.00,,---,0.00,VWS V14.01,2013-01-03 19:16:00,
2013-01-03 11:54:00,40.6,8.4,23.59,NE,45,4.7,5.4,26,0.00,,---,0.00,VWS V14.01,2013-01-03 19:54:00,
2013-01-03 12:00:00,40.5,9.9,23.59,NW,315,1.1,3.6,28,0.00,,---,0.00,VWS V14.01,2013-01-03 20:00:00,
2013-01-03 12:05:00,39.4,9.0,23.59,NNE,22,2.0,4.3,28,0.00,,---,0.00,VWS V14.01,2013-01-03 20:05:00,
2013-01-03 12:11:00,39.2,8.9,23.59,North,0,5.4,5.4,28,0.00,,---,0.00,VWS V14.01,2013-01-03 20:11:00,
2013-01-03 12:16:00,39.4,9.0,23.59,NNW,338,3.8,4.3,28,0.00,,---,0.00,VWS V14.01,2013-01-03 20:16:00,
2013-01-03 12:21:00,39.6,9.9,23.59,NNW,338,3.4,5.4,29,0.00,,---,0.00,VWS V14.01,2013-01-03 20:21:00,
2013-01-03 12:26:00,39.2,8.9,23.59,NNE,22,2.9,5.4,28,0.00,,---,0.00,VWS V14.01,2013-01-03 20:26:00,
2013-01-03 12:32:00,39.0,9.5,23.59,NNE,22,3.4,3.4,29,0.00,,---,0.00,VWS V14.01,2013-01-03 20:32:00,
2013-01-03 12:37:00,38.8,9.3,23.59,NNE,22,4.9,6.5,29,0.00,,---,0.00,VWS V14.01,2013-01-03 20:37:00,
2013-01-03 12:42:00,38.7,9.2,23.59,East,90,2.0,4.3,29,0.00,,---,0.00,VWS V14.01,2013-01-03 20:42:00,
2013-01-03 12:47:00,38.5,6.6,23.59,NE,45,0.0,3.6,26,0.00,,---,0.00,VWS V14.01,2013-01-03 20:47:00,
2013-01-03 12:53:00,38.5,6.6,23.59,NNE,22,8.7,9.8,26,0.00,,---,0.00,VWS V14.01,2013-01-03 20:53:00,
2013-01-03 12:58:00,38.5,6.6,23.59,NE,45,7.4,7.4,26,0.00,,---,0.00,VWS V14.01,2013-01-03 20:58:00,
2013-01-03 13:03:00,38.1,6.3,23.59,NE,45,3.1,6.0,26,0.00,,---,0.00,VWS V14.01,2013-01-03 21:03:00,
2013-01-03 13:08:00,38.1,6.3,23.59,East,90,6.0,6.0,26,0.00,,---,0.00,VWS V14.01,2013-01-03 21:08:00,
2013-01-03 13:14:00,37.9,6.1,23.59,NE,45,4.3,6.3,26,0.00,,---,0.00,VWS V14.01,2013-01-03 21:14:00,
2013-01-03 13:19:00,38.1,6.3,23.59,NE,45,3.4,5.4,26,0.00,,---,0.00,VWS V14.01,2013-01-03 21:19:00,
2013-01-03 13:24:00,38.3,6.4,23.59,NW,315,3.4,7.6,26,0.00,,---,0.00,VWS V14.01,2013-01-03 21:24:00,
2013-01-03 13:29:00,38.3,6.4,23.59,NNE,22,0.9,4.9,26,0.00,,---,0.00,VWS V14.01,2013-01-03 21:29:00,
2013-01-03 13:34:00,38.3,6.4,23.59,NE,45,1.3,4.9,26,0.00,,---,0.00,VWS V14.01,2013-01-03 21:34:00,
2013-01-03 13:39:00,38.3,6.4,23.59,North,0,3.4,6.0,26,0.00,,---,0.00,VWS V14.01,2013-01-03 21:39:00,
2013-01-03 13:45:00,38.3,6.4,23.59,NE,45,4.0,6.3,26,0.00,,---,0.00,VWS V14.01,2013-01-03 21:45:00,
2013-01-03 13:50:00,37.8,4.2,23.59,ENE,68,0.9,5.6,24,0.00,,---,0.00,VWS V14.01,2013-01-03 21:50:00,
2013-01-03 13:55:00,37.8,6.0,23.59,NNE,22,3.4,3.4,26,0.00,,---,0.00,VWS V14.01,2013-01-03 21:55:00,
2013-01-03 14:00:00,37.9,6.1,23.59,North,0,4.0,5.4,26,0.00,,---,0.00,VWS V14.01,2013-01-03 22:00:00,
2013-01-03 14:06:00,37.9,6.1,23.59,South,180,1.1,2.5,26,0.00,,---,0.00,VWS V14.01,2013-01-03 22:06:00,
2013-01-03 14:11:00,37.6,5.8,23.59,NW,315,1.3,3.4,26,0.00,,---,0.00,VWS V14.01,2013-01-03 22:11:00,
2013-01-03 14:16:00,37.8,6.0,23.59,North,0,1.1,1.1,26,0.00,,---,0.00,VWS V14.01,2013-01-03 22:16:00,
2013-01-03 14:21:00,37.6,5.8,23.59,ENE,68,2.9,3.8,26,0.00,,---,0.00,VWS V14.01,2013-01-03 22:21:00,
2013-01-03 14:26:00,37.6,5.8,23.59,East,90,0.0,0.0,26,0.00,,---,0.00,VWS V14.01,2013-01-03 22:26:00,
2013-01-03 14:31:00,37.4,5.7,23.59,NNW,338,0.0,2.2,26,0.00,,---,0.00,VWS V14.01,2013-01-03 22:31:00,
2013-01-03 14:36:00,37.6,5.8,23.59,East,90,1.1,2.9,26,0.00,,---,0.00,VWS V14.01,2013-01-03 22:36:00,
2013-01-03 14:41:00,37.4,3.9,23.59,ENE,68,3.1,4.0,24,0.00,,---,0.00,VWS V14.01,2013-01-03 22:41:00,
2013-01-03 14:46:00,37.6,4.1,23.59,SE,135,1.3,2.5,24,0.00,,---,0.00,VWS V14.01,2013-01-03 22:46:00,
2013-01-03 14:51:00,37.6,4.1,23.59,East,90,0.0,1.1,24,0.00,,---,0.00,VWS V14.01,2013-01-03 22:51:00,
2013-01-03 14:56:00,37.6,4.1,23.59,SSE,158,1.1,1.3,24,0.00,,---,0.00,VWS V14.01,2013-01-03 22:56:00,
2013-01-03 15:01:00,37.8,4.2,23.59,ENE,68,0.0,0.9,24,0.00,,---,0.00,VWS V14.01,2013-01-03 23:01:00,
2013-01-03 15:06:00,37.9,4.4,23.59,West,270,0.9,1.3,24,0.00,,---,0.00,VWS V14.01,2013-01-03 23:06:00,
2013-01-03 15:11:00,38.1,4.5,23.59,WSW,248,0.0,2.5,24,0.00,,---,0.00,VWS V14.01,2013-01-03 23:11:00,
2013-01-03 15:16:00,38.1,4.5,23.59,NW,315,0.0,0.0,24,0.00,,---,0.00,VWS V14.01,2013-01-03 23:16:00,
2013-01-03 15:21:00,38.1,4.5,23.59,WNW,292,0.0,0.0,24,0.00,,---,0.00,VWS V14.01,2013-01-03 23:21:00,
2013-01-03 15:26:00,38.1,4.5,23.59,WSW,248,2.9,2.9,24,0.00,,---,0.00,VWS V14.01,2013-01-03 23:26:00,
2013-01-03 15:31:00,38.3,4.7,23.59,SW,225,0.0,2.2,24,0.00,,---,0.00,VWS V14.01,2013-01-03 23:31:00,
2013-01-03 15:36:00,38.1,4.5,23.59,SW,225,0.0,0.0,24,0.00,,---,0.00,VWS V14.01,2013-01-03 23:36:00,
2013-01-03 15:41:00,38.1,4.5,23.59,NW,315,0.0,0.0,24,0.00,,---,0.00,VWS V14.01,2013-01-03 23:41:00,
2013-01-03 15:46:00,37.6,4.1,23.59,NW,315,1.1,1.3,24,0.00,,---,0.00,VWS V14.01,2013-01-03 23:46:00,
2013-01-03 15:51:00,37.6,4.1,23.59,NW,315,0.0,0.0,24,0.00,,---,0.00,VWS V14.01,2013-01-03 23:51:00,
2013-01-03 15:56:00,37.4,3.9,23.59,West,270,0.0,0.0,24,0.00,,---,0.00,VWS V14.01,2013-01-03 23:56:00,
2013-01-03 16:01:00,36.9,3.5,23.59,West,270,0.0,0.0,24,0.00,,---,0.00,VWS V14.01,2013-01-04 00:01:00,
2013-01-03 16:06:00,36.5,3.2,23.59,West,270,0.0,1.3,24,0.00,,---,0.00,VWS V14.01,2013-01-04 00:06:00,
2013-01-03 16:11:00,35.8,2.5,23.59,West,270,0.0,0.0,24,0.00,,---,0.00,VWS V14.01,2013-01-04 00:11:00,
2013-01-03 16:17:00,35.1,2.8,23.59,West,270,0.0,0.0,25,0.00,,---,0.00,VWS V14.01,2013-01-04 00:17:00,
2013-01-03 16:22:00,34.9,2.6,23.59,SW,225,0.0,0.0,25,0.00,,---,0.00,VWS V14.01,2013-01-04 00:22:00,
2013-01-03 16:27:00,33.8,1.7,23.59,NW,315,0.0,0.0,25,0.00,,---,0.00,VWS V14.01,2013-01-04 00:27:00,
2013-01-03 16:32:00,33.1,1.1,23.59,WNW,292,1.1,2.0,25,0.00,,---,0.00,VWS V14.01,2013-01-04 00:32:00,
2013-01-03 16:37:00,32.4,0.5,23.59,WNW,292,2.2,2.2,25,0.00,,---,0.00,VWS V14.01,2013-01-04 00:37:00,
2013-01-03 16:42:00,31.5,-0.3,23.59,NW,315,0.0,0.0,25,0.00,,---,0.00,VWS V14.01,2013-01-04 00:42:00,
2013-01-03 16:47:00,29.7,-1.8,23.59,NE,45,0.0,0.9,25,0.00,,---,0.00,VWS V14.01,2013-01-04 00:47:00,
2013-01-03 16:52:00,28.2,-2.2,23.59,NE,45,0.0,1.6,26,0.00,,---,0.00,VWS V14.01,2013-01-04 00:52:00,
2013-01-03 16:57:00,27.0,-3.3,23.59,NE,45,1.6,1.6,26,0.00,,---,0.00,VWS V14.01,2013-01-04 00:57:00,
2013-01-03 17:02:00,25.7,-4.4,23.59,NE,45,0.9,0.9,26,0.00,,---,0.00,VWS V14.01,2013-01-04 01:02:00,
2013-01-03 17:07:00,25.7,-4.4,23.59,NE,45,0.0,0.0,26,0.00,,---,0.00,VWS V14.01,2013-01-04 01:07:00,
2013-01-03 17:12:00,24.8,-4.4,23.59,NE,45,2.5,2.5,27,0.00,,---,0.00,VWS V14.01,2013-01-04 01:12:00,
2013-01-03 17:17:00,23.7,-5.4,23.59,NE,45,0.0,0.0,27,0.00,,---,0.00,VWS V14.01,2013-01-04 01:17:00,
2013-01-03 17:22:00,23.4,-5.7,23.59,NE,45,0.0,0.0,27,0.00,,---,0.00,VWS V14.01,2013-01-04 01:22:00,
2013-01-03 17:27:00,23.4,-5.7,23.59,NE,45,0.0,0.0,27,0.00,,---,0.00,VWS V14.01,2013-01-04 01:27:00,
2013-01-03 17:32:00,22.6,-6.3,23.59,NE,45,0.0,0.0,27,0.00,,---,0.00,VWS V14.01,2013-01-04 01:32:00,
2013-01-03 17:37:00,22.3,-6.6,23.59,NE,45,0.0,0.0,27,0.00,,---,0.00,VWS V14.01,2013-01-04 01:37:00,
2013-01-03 17:42:00,22.1,-6.8,23.59,NE,45,0.0,0.0,27,0.00,,---,0.00,VWS V14.01,2013-01-04 01:42:00,
2013-01-03 17:47:00,21.9,-6.9,23.59,NE,45,0.0,0.0,27,0.00,,---,0.00,VWS V14.01,2013-01-04 01:47:00,
2013-01-03 17:52:00,21.7,-7.1,23.59,NE,45,0.0,0.0,27,0.00,,---,0.00,VWS V14.01,2013-01-04 01:52:00,
2013-01-03 17:57:00,20.8,-7.9,23.59,NNE,22,0.0,0.0,27,0.00,,---,0.00,VWS V14.01,2013-01-04 01:57:00,
2013-01-03 18:03:00,20.3,-8.3,23.59,NNE,22,0.0,0.0,27,0.00,,---,0.00,VWS V14.01,2013-01-04 02:03:00,
2013-01-03 18:08:00,20.3,-8.3,23.59,WSW,248,0.0,0.0,27,0.00,,---,0.00,VWS V14.01,2013-01-04 02:08:00,
2013-01-03 18:13:00,19.2,-8.5,23.59,SW,225,0.0,0.0,28,0.00,,---,0.00,VWS V14.01,2013-01-04 02:13:00,
2013-01-03 18:18:00,18.7,-9.0,23.59,NNE,22,0.0,0.0,28,0.00,,---,0.00,VWS V14.01,2013-01-04 02:18:00,
2013-01-03 18:23:00,18.7,-9.0,23.59,North,0,0.0,0.0,28,0.00,,---,0.00,VWS V14.01,2013-01-04 02:23:00,
2013-01-03 18:28:00,18.3,-9.3,23.59,North,0,0.0,0.0,28,0.00,,---,0.00,VWS V14.01,2013-01-04 02:28:00,
2013-01-03 18:33:00,17.2,-8.2,23.59,ENE,68,0.0,0.0,31,0.00,,---,0.00,VWS V14.01,2013-01-04 02:33:00,
2013-01-03 18:38:00,16.9,-8.5,23.59,ENE,68,0.0,0.0,31,0.00,,---,0.00,VWS V14.01,2013-01-04 02:38:00,
2013-01-03 18:43:00,16.5,-7.6,23.59,ENE,68,0.0,0.0,33,0.00,,---,0.00,VWS V14.01,2013-01-04 02:43:00,
2013-01-03 18:48:00,15.8,-7.6,23.59,ENE,68,0.0,0.0,34,0.00,,---,0.00,VWS V14.01,2013-01-04 02:48:00,
2013-01-03 18:53:00,18.3,0.6,23.59,SW,225,0.0,0.0,45,0.00,,---,0.00,VWS V14.01,2013-01-04 02:53:00,
2013-01-03 18:58:00,17.6,-2.6,23.59,WSW,248,0.0,0.0,40,0.00,,---,0.00,VWS V14.01,2013-01-04 02:58:00,
2013-01-03 19:03:00,16.7,-4.5,23.59,NNE,22,0.0,0.0,38,0.00,,---,0.00,VWS V14.01,2013-01-04 03:03:00,
2013-01-03 19:08:00,16.5,-5.2,23.59,NNE,22,0.0,0.0,37,0.00,,---,0.00,VWS V14.01,2013-01-04 03:08:00,
2013-01-03 19:13:00,16.7,-5.0,23.59,WSW,248,0.0,0.0,37,0.00,,---,0.00,VWS V14.01,2013-01-04 03:13:00,
2013-01-03 19:18:00,16.2,-5.0,23.59,SSW,202,0.0,0.0,38,0.00,,---,0.00,VWS V14.01,2013-01-04 03:18:00,
2013-01-03 19:23:00,16.2,-5.0,23.62,WNW,292,0.0,0.0,38,0.00,,---,0.00,VWS V14.01,2013-01-04 03:23:00,
2013-01-03 19:28:00,15.6,-5.5,23.62,WSW,248,0.0,0.0,38,0.00,,---,0.00,VWS V14.01,2013-01-04 03:28:00,
2013-01-03 19:33:00,15.1,-5.9,23.62,WNW,292,0.0,0.0,38,0.00,,---,0.00,VWS V14.01,2013-01-04 03:33:00,
2013-01-03 19:38:00,14.4,-6.6,23.62,NE,45,0.0,0.0,38,0.00,,---,0.00,VWS V14.01,2013-01-04 03:38:00,
2013-01-03 19:43:00,14.2,-6.8,23.62,NE,45,0.0,0.0,38,0.00,,---,0.00,VWS V14.01,2013-01-04 03:43:00,
2013-01-03 19:48:00,13.5,-7.4,23.62,ENE,68,0.0,0.0,38,0.00,,---,0.00,VWS V14.01,2013-01-04 03:48:00,
2013-01-03 19:53:00,13.6,-7.2,23.62,South,180,0.0,0.0,38,0.00,,---,0.00,VWS V14.01,2013-01-04 03:53:00,
2013-01-03 19:59:00,13.6,-7.2,23.62,SW,225,0.0,0.0,38,0.00,,---,0.00,VWS V14.01,2013-01-04 03:59:00,
2013-01-03 20:04:00,13.3,-7.6,23.62,ENE,68,0.0,0.0,38,0.00,,---,0.00,VWS V14.01,2013-01-04 04:04:00,
2013-01-03 20:10:00,12.9,-7.9,23.65,SSW,202,0.0,0.0,38,0.00,,---,0.00,VWS V14.01,2013-01-04 04:10:00,
2013-01-03 20:15:00,13.1,-7.7,23.65,SSW,202,0.0,0.0,38,0.00,,---,0.00,VWS V14.01,2013-01-04 04:15:00,
2013-01-03 20:20:00,12.9,-7.9,23.65,SSW,202,0.0,0.0,38,0.00,,---,0.00,VWS V14.01,2013-01-04 04:20:00,
2013-01-03 20:25:00,12.9,-7.9,23.65,SSW,202,0.0,0.0,38,0.00,,---,0.00,VWS V14.01,2013-01-04 04:25:00,
2013-01-03 20:31:00,12.2,-8.5,23.65,SSE,158,0.0,0.0,38,0.00,,---,0.00,VWS V14.01,2013-01-04 04:31:00,
2013-01-03 20:36:00,12.2,-8.5,23.65,SSW,202,0.0,0.0,38,0.00,,---,0.00,VWS V14.01,2013-01-04 04:36:00,
2013-01-03 20:42:00,11.8,-8.9,23.65,SSW,202,0.0,0.0,38,0.00,,---,0.00,VWS V14.01,2013-01-04 04:42:00,
2013-01-03 20:47:00,11.7,-9.0,23.65,SSW,202,0.0,0.0,38,0.00,,---,0.00,VWS V14.01,2013-01-04 04:47:00,
2013-01-03 20:52:00,11.3,-9.4,23.65,NNE,22,0.0,0.0,38,0.00,,---,0.00,VWS V14.01,2013-01-04 04:52:00,
2013-01-03 20:57:00,11.3,-9.4,23.65,West,270,0.0,0.0,38,0.00,,---,0.00,VWS V14.01,2013-01-04 04:57:00,
2013-01-03 21:03:00,11.5,-9.2,23.65,WSW,248,0.0,0.0,38,0.00,,---,0.00,VWS V14.01,2013-01-04 05:03:00,
2013-01-03 21:04:00,11.5,-9.2,23.65,WSW,248,0.0,0.0,38,0.00,,---,0.00,VWS V14.01,2013-01-04 05:04:00,
2013-01-03 21:06:00,11.3,-9.4,23.65,WSW,248,0.0,0.0,38,0.00,,---,0.00,VWS V14.01,2013-01-04 05:06:00,
2013-01-03 21:07:00,11.3,-9.4,23.65,WSW,248,0.0,0.0,38,0.00,,---,0.00,VWS V14.01,2013-01-04 05:07:00,
2013-01-03 21:13:00,11.1,-9.5,23.62,ENE,68,0.0,0.0,38,0.00,,---,0.00,VWS V14.01,2013-01-04 05:13:00,
2013-01-03 21:18:00,11.1,-9.5,23.62,South,180,0.0,0.0,38,0.00,,---,0.00,VWS V14.01,2013-01-04 05:18:00,
2013-01-03 21:23:00,11.1,-9.5,23.65,South,180,0.0,0.0,38,0.00,,---,0.00,VWS V14.01,2013-01-04 05:23:00,
2013-01-03 21:28:00,10.9,-9.7,23.65,South,180,0.0,0.0,38,0.00,,---,0.00,VWS V14.01,2013-01-04 05:28:00,
2013-01-03 21:34:00,10.8,-9.8,23.65,SSE,158,0.0,0.0,38,0.00,,---,0.00,VWS V14.01,2013-01-04 05:34:00,
2013-01-03 21:39:00,10.4,-10.2,23.65,East,90,0.0,0.0,38,0.00,,---,0.00,VWS V14.01,2013-01-04 05:39:00,
2013-01-03 21:44:00,10.2,-10.3,23.65,SSE,158,0.0,0.0,38,0.00,,---,0.00,VWS V14.01,2013-01-04 05:44:00,
2013-01-03 21:49:00,10.4,-10.2,23.65,SW,225,0.0,0.0,38,0.00,,---,0.00,VWS V14.01,2013-01-04 05:49:00,
2013-01-03 21:55:00,10.2,-10.3,23.65,NNW,338,0.0,0.0,38,0.00,,---,0.00,VWS V14.01,2013-01-04 05:55:00,
2013-01-03 22:01:00,10.2,-10.3,23.65,WSW,248,0.0,0.0,38,0.00,,---,0.00,VWS V14.01,2013-01-04 06:01:00,
2013-01-03 22:06:00,10.2,-10.3,23.65,WSW,248,0.0,0.0,38,0.00,,---,0.00,VWS V14.01,2013-01-04 06:06:00,
2013-01-03 22:11:00,10.0,-10.5,23.65,WSW,248,0.0,0.0,38,0.00,,---,0.00,VWS V14.01,2013-01-04 06:11:00,
2013-01-03 22:16:00,9.7,-10.8,23.65,WSW,248,0.0,0.0,38,0.00,,---,0.00,VWS V14.01,2013-01-04 06:16:00,
2013-01-03 22:21:00,9.5,-11.0,23.65,WSW,248,0.0,0.0,38,0.00,,---,0.00,VWS V14.01,2013-01-04 06:21:00,
2013-01-03 22:26:00,9.5,-11.0,23.65,WSW,248,0.0,0.0,38,0.00,,---,0.00,VWS V14.01,2013-01-04 06:26:00,
2013-01-03 22:31:00,9.5,-11.0,23.65,SW,225,0.0,0.0,38,0.00,,---,0.00,VWS V14.01,2013-01-04 06:31:00,
2013-01-03 22:37:00,9.5,-11.0,23.65,SW,225,0.0,0.0,38,0.00,,---,0.00,VWS V14.01,2013-01-04 06:37:00,
2013-01-03 22:42:00,9.3,-11.1,23.62,WSW,248,0.0,0.0,38,0.00,,---,0.00,VWS V14.01,2013-01-04 06:42:00,
2013-01-03 22:48:00,9.1,-11.3,23.62,WSW,248,0.0,0.0,38,0.00,,---,0.00,VWS V14.01,2013-01-04 06:48:00,
2013-01-03 22:53:00,8.8,-11.6,23.62,West,270,0.0,0.0,38,0.00,,---,0.00,VWS V14.01,2013-01-04 06:53:00,
2013-01-03 22:59:00,8.4,-12.0,23.62,SW,225,0.0,0.0,38,0.00,,---,0.00,VWS V14.01,2013-01-04 06:59:00,
2013-01-03 23:04:00,8.4,-12.0,23.62,SSW,202,0.0,0.0,38,0.00,,---,0.00,VWS V14.01,2013-01-04 07:04:00,
2013-01-03 23:09:00,8.4,-12.0,23.62,South,180,0.0,0.0,38,0.00,,---,0.00,VWS V14.01,2013-01-04 07:09:00,
2013-01-03 23:14:00,8.2,-12.1,23.62,SSE,158,0.0,0.0,38,0.00,,---,0.00,VWS V14.01,2013-01-04 07:14:00,
2013-01-03 23:20:00,8.2,-12.1,23.62,SSE,158,0.0,0.0,38,0.00,,---,0.00,VWS V14.01,2013-01-04 07:20:00,
2013-01-03 23:26:00,8.1,-12.3,23.62,SSW,202,0.0,0.0,38,0.00,,---,0.00,VWS V14.01,2013-01-04 07:26:00,
2013-01-03 23:31:00,8.1,-12.3,23.62,South,180,0.0,0.0,38,0.00,,---,0.00,VWS V14.01,2013-01-04 07:31:00,
2013-01-03 23:36:00,8.1,-12.3,23.62,SSW,202,0.0,0.0,38,0.00,,---,0.00,VWS V14.01,2013-01-04 07:36:00,
2013-01-03 23:41:00,8.1,-12.3,23.62,SSW,202,0.0,0.0,38,0.00,,---,0.00,VWS V14.01,2013-01-04 07:41:00,
2013-01-03 23:47:00,7.9,-12.4,23.62,SW,225,0.0,0.0,38,0.00,,---,0.00,VWS V14.01,2013-01-04 07:47:00,
2013-01-03 23:52:00,7.7,-12.6,23.62,SW,225,0.0,0.0,38,0.00,,---,0.00,VWS V14.01,2013-01-04 07:52:00,
2013-01-03 23:57:00,7.5,-12.8,23.62,SW,225,0.0,0.0,38,0.00,,---,0.00,VWS V14.01,2013-01-04 07:57:00,